Regional Weather Roundup
Issued by NWS

Home | Current Version | Previous Version | Graphics & Text | Print | Product List | Glossary On
Versions: 1 2 3 4 5 6 7 8 9 10 11 12 13 14 15 16 17 18 19 20 21 22 23 24 25 26 27 28 29 30 31 32 33 34 35 36 37 38 39 40 41 42 43 44 45 46 47 48 49 50
000
ASUS45 KABQ 020710
RWRNM
NEW MEXICO REGIONAL WEATHER ROUNDUP
NATIONAL WEATHER SERVICE ALBUQUERQUE NM
100 AM MDT WED SEP 02 2015

NOTE: "FAIR" MEANS FEW OR NO CLOUDS BELOW 12,000 FEET AGL WITH NO
       SIGNIFICANT WEATHER OR OBSTRUCTIONS TO VISION.

      THIS PRODUCT IS RELEASED AS TWO VERSIONS.  ONE VERSION NEAR
      THE TOP OF THE HOUR CONTAINING PRELIMINARY DATA FROM ALBUQUERQUE
      AND OTHER STATIONS.  A FINAL VERSION WITH ADDITIONAL DATA IS
      ISSUED ABOUT 10 MINUTES AFTER THE HOUR.

NMZ501-503-504-510>518-020800-
NORTHWEST PLATEAU/NORTHCENTRAL MOUNTAINS

CITY           SKY/WX    TMP DP  RH WIND       PRES   REMARKS
FARMINGTON     PTCLDY    67  48  50 CALM      30.18R
LOS ALAMOS     PTCLDY    68  42  39 W6        30.31S
SANTA FE       NOT AVBL
TAOS           CLOUDY    63  39  42 N5        30.31S
ANGEL FIRE     CLOUDY    52  47  85 CALM      30.41S

$$
NMZ402-403-502-505>509-020800-
WESTCENTRAL MOUNTAINS/SOUTHWEST MOUNTAINS

CITY           SKY/WX    TMP DP  RH WIND       PRES   REMARKS
GALLUP         MOCLDY    57  48  72 NE3       30.28R
GRANTS         MOCLDY    56  51  83 CALM      30.30S
SILVER CITY      N/A     64  50  59 NW10      30.23R

$$
NMZ407-409-411-412-020800-
SOUTHERN DESERTS

CITY           SKY/WX    TMP DP  RH WIND       PRES   REMARKS
LORDSBURG      FAIR      72  59  64 W3        30.14R
DEMING         MOCLDY    73  53  49 SW5       30.13R
LAS CRUCES     PTCLDY    74  44  34 NW7       30.12S
HOLLOMAN AFB   PTCLDY    76  45  32 SW5       30.08R
ALAMOGORDO     PTCLDY    70  41  35 NE5       30.10S
T OR C         PTCLDY    72  48  42 W6        30.15S

$$
NMZ519>523-020800-
CENTRAL VALLEYS/CENTRAL HIGHLANDS

CITY           SKY/WX    TMP DP  RH WIND       PRES   REMARKS
ALBUQUERQUE    MOCLDY    73  43  33 S7        30.19R
DOUBLE EAGLE   PTCLDY    63  47  56 S3        30.22R
MORIARTY ARPT  PTSUNNY   67  44  42 CALM      30.26S
CLINES CORNERS CLOUDY    64  43  46 S7        30.31S
BELEN          FAIR      67  52  57 SW5       30.18S
SOCORRO        FAIR      70  53  54 CALM      30.16S

$$
NMZ524>526-539-540-020800-
SOUTHCENTRAL MOUNTAINS

CITY           SKY/WX    TMP DP  RH WIND       PRES   REMARKS
RUIDOSO        MOCLDY    63  46  55 MISG      30.33F

$$
NMZ527>531-020800-
NORTHEAST HIGHLANDS/NORTHEAST PLAINS

CITY           SKY/WX    TMP DP  RH WIND       PRES   REMARKS
LAS VEGAS      MOCLDY    58  49  72 S8        30.29S
RATON          PTCLDY    59  49  69 N3        30.23S
CLAYTON        PTCLDY    67  55  65 SW9       30.14S

$$
NMZ532>537-020800-
EASTCENTRAL PLAINS

CITY           SKY/WX    TMP DP  RH WIND       PRES   REMARKS
TUCUMCARI      CLOUDY    79  52  38 S14       30.08S
CANNON AFB     MOCLDY    73  52  47 SW7       30.15F
CLOVIS AIRPORT MOCLDY    70  52  52 SW7       30.17S

$$
NMZ028-029-538-020800-
SOUTHEAST PLAINS

CITY           SKY/WX    TMP DP  RH WIND       PRES   REMARKS
ROSWELL        PTCLDY    77  50  38 CALM      30.10R
ARTESIA        CLEAR     75  50  41 S10       30.09S
CARLSBAD       PTCLDY    76  50  40 S10       30.06F


$$


USA.gov is the U.S. government's official web portal to all federal, state and local government web resources and services.